Location: Eyeline Observatory
(43.2182°N, 78.8632°W)
Time: 20:16:53
(UTC-04:00)

Tiangong 1 - Pass Details

Date: 13 October 2017
Orbit: 294 x 320 km, 42.8° (Epoch: 17 October)

Event Time Altitude Azimuth Distance (km) Brightness Sun altitude
Rises 19:53:01 0° 277° (W) 2,042 6.7 -14.9°
Reaches altitude 10° 19:55:04 10° 271° (W) 1,206 5.0 -15.3°
Maximum altitude 19:57:39 42° 197° (SSW) 454 1.5 -15.8°
Enters shadow 19:58:14 35° 159° (SSE) 521 1.5 -15.9°
